[[{"header":{"parameterUnit":"m.s-1","parameterCategory":1,"la1":30.2992,"la2":30.254,"lo1":-89.0895,"lo2":-89.0443,"dy":0.0025,"dx":0.0025,"nx":19,"ny":19,"refTime":"2026-04-12T09:00:00:Z","depth":0,"parameterNumber":2,"parameterNumberName":"U-component_of_WINDS"},"data":[0,0,0,-2.9054,-2.9055,-2.9104,-2.9104,-2.9182,-2.9183,0,0,0,0,0,0,0,0,0,0,0,-2.9047,-2.9048,-2.9054,-2.9055,-2.9104,-2.9104,-2.9182,-2.9183,0,0,0,0,0,0,0,0,0,0,0,-2.9047,-2.9048,-2.9049,-2.9055,-2.9104,-2.9104,-2.9182,-2.9139,0,0,0,0,0,0,0,0,0,0,-2.9089,-2.9091,-2.9047,-2.9049,-2.9056,-2.9104,-2.9104,-2.9137,-2.9142,-2.9166,0,-2.9188,0,-2.9186,-2.9189,-2.9189,0,0,0,-2.905,-2.9087,-2.9093,-2.9049,-2.9056,-2.9104,-2.908,-2.914,-2.9145,-2.9172,-2.9189,-2.9191,-2.9188,-2.9189,-2.919,-2.9342,-2.9343,0,0,-2.9047,-2.906,-2.9089,-2.9097,-2.9089,-2.9079,-2.9082,-2.9143,-2.9162,-2.9189,-2.9193,-2.9189,-2.919,-2.9191,-2.9341,-2.9342,0,0,0,-2.9043,-2.9059,-2.9063,-2.9094,-2.9101,-2.908,-2.9084,-2.9159,-2.916,-2.9194,-2.919,-2.919,-2.9192,-2.934,-2.9342,-2.9402,0,0,0,-2.9041,-2.9056,-2.9062,-2.9071,-2.9101,-2.9131,-2.9099,-2.9155,-2.9162,-2.919,-2.919,-2.9192,-2.9339,-2.9341,-2.9398,-2.9428,0,0,0,-2.9041,-2.9056,-2.9066,-2.9071,-2.9093,-2.9129,-2.9133,-2.9156,-2.916,-2.9189,-2.9193,-2.9338,-2.9341,-2.9394,-2.9422,-2.9472,0,0,0,-2.9046,-2.9119,-2.9067,-2.9148,-2.9093,-2.9166,-2.9132,-2.9187,-2.9219,-2.9191,-2.9339,-2.9342,-2.9393,-2.9419,-2.9468,-2.9516,-2.9537,0,0,-2.9146,-2.9132,-2.9179,-2.9133,-2.922,-2.9158,-2.9254,-2.9271,-2.9262,-2.9316,-2.932,-2.9399,-2.9422,-2.9471,-2.9652,-2.9669,0,0,0,-2.9215,-2.9249,-2.9269,-2.93,-2.9314,-2.933,-2.9331,-2.9337,-2.9383,-2.9292,-2.9431,-2.9444,-2.9472,-2.9494,-2.9509,-2.9532,-2.9352,-2.9352,-2.9352,-2.9376,-2.936,-2.9436,-2.9427,-2.9458,-2.9459,-2.9482,-2.9492,-2.9467,-2.95,-2.9516,-2.9627,-2.9654,-2.9664,-2.9689,-2.954,-2.9541,-2.9541,-2.9541,-2.9521,-2.9566,-2.9532,-2.9594,-2.9578,-2.963,-2.9634,-2.9615,-2.9662,-2.9614,-2.9638,-2.9586,-2.9683,-2.9704,-2.9545,-2.9545,-2.9544,-2.9544,-2.9543,-2.9624,-2.9643,-2.9649,-2.9693,-2.9729,-2.9718,-2.9764,-2.9748,-2.9733,-2.9757,-2.9772,-2.9771,-2.9768,-2.9766,-2.9766,-2.9766,-2.9767,-2.9767,-2.9767,-2.9728,-2.9733,-2.9774,-2.9796,-2.9814,-2.9836,-2.9839,-2.9857,-2.9873,-2.9858,-2.9858,-2.983,-2.9696,-2.9662,-2.9773,-2.9772,-2.9771,-2.9771,-2.977,-2.988,-2.9843,-2.9905,-2.9924,-2.9949,-2.9986,-2.9965,-3.0003,-3.0016,-3.004,-3.0008,-2.9911,-2.9896,-2.9884,-2.9856,-3.0011,-3.0011,-3.0011,-3.0011,-2.9966,-2.9957,-3.0017,-3.0047,-3.0075,-3.0063,-3.0136,-3.014,-3.0138,-3.0145,-3.0121,-3.0082,-3.0071,-3.0062,-3.0047,-3.002,-3.0214,-3.0214,-3.0214,-3.0059,-3.0051,-3.0115,-3.0112,-3.0131,-3.0148,-3.0216,-3.0254,-3.0244,-3.0222,-3.015,-3.0142,-3.008,-3.006,-3.0035,-3.0011,-2.9962,0,0]},{"header":{"parameterUnit":"m.s-1","parameterCategory":1,"la1":30.2992,"la2":30.254,"lo1":-89.0895,"lo2":-89.0443,"dy":0.0025,"dx":0.0025,"nx":19,"ny":19,"refTime":"2026-04-12T09:00:00:Z","depth":0,"parameterNumber":3,"parameterNumberName":"V-component_of_WINDS"},"data":[0,0,0,2.7117,2.7115,2.7029,2.7028,2.6919,2.6918,0,0,0,0,0,0,0,0,0,0,0,2.7147,2.7147,2.7117,2.7115,2.7029,2.7028,2.6919,2.6918,0,0,0,0,0,0,0,0,0,0,0,2.7147,2.7147,2.7146,2.7115,2.7029,2.7028,2.6919,2.6983,0,0,0,0,0,0,0,0,0,0,2.7066,2.71,2.7147,2.7146,2.7114,2.7029,2.7028,2.6986,2.6979,2.6959,0,2.6947,0,2.6931,2.6911,2.691,0,0,0,2.711,2.7106,2.7079,2.7146,2.7114,2.7029,2.7066,2.6982,2.6974,2.695,2.6945,2.6941,2.6929,2.691,2.691,2.6823,2.6823,0,0,2.7115,2.7133,2.7084,2.7074,2.7092,2.7069,2.7064,2.6977,2.6971,2.6945,2.6939,2.6927,2.6909,2.6909,2.6823,2.6823,0,0,0,2.7132,2.7136,2.7112,2.7079,2.7063,2.7067,2.7061,2.6975,2.6966,2.6937,2.6926,2.6909,2.6907,2.6823,2.6823,2.6833,0,0,0,2.7135,2.7146,2.7114,2.7124,2.7065,2.7019,2.7061,2.6972,2.6962,2.6927,2.6909,2.6906,2.6824,2.6823,2.6833,2.6833,0,0,0,2.7151,2.7148,2.7138,2.7125,2.7089,2.702,2.7005,2.6969,2.6955,2.691,2.6906,2.6824,2.6823,2.6833,2.6833,2.6816,0,0,0,2.7172,2.7145,2.7138,2.7103,2.709,2.7028,2.7006,2.6958,2.6921,2.6908,2.6824,2.6823,2.6833,2.6834,2.6816,2.6804,2.6801,0,0,2.7148,2.7143,2.7121,2.7112,2.7057,2.704,2.6984,2.6931,2.6908,2.6852,2.6849,2.6833,2.6833,2.6816,2.678,2.6778,0,0,0,2.7119,2.7104,2.7085,2.7053,2.7015,2.6981,2.6936,2.6916,2.6868,2.6885,2.6822,2.6821,2.681,2.6803,2.6801,2.679,2.6821,2.6821,2.6821,2.7108,2.7084,2.7046,2.7012,2.698,2.6935,2.6906,2.6871,2.6853,2.6839,2.6821,2.6803,2.6796,2.6794,2.6782,2.6814,2.6814,2.6814,2.6814,2.7069,2.7043,2.7023,2.6979,2.6952,2.6913,2.6867,2.6856,2.6814,2.6814,2.6802,2.6804,2.6793,2.6781,2.6814,2.6814,2.6814,2.6814,2.6814,2.7058,2.7042,2.7021,2.6973,2.6938,2.6902,2.6864,2.684,2.6816,2.6805,2.6784,2.6783,2.6779,2.6797,2.6797,2.6797,2.6797,2.6797,2.6797,2.7055,2.7032,2.7004,2.6963,2.694,2.6905,2.686,2.6834,2.6799,2.6785,2.6784,2.6767,2.6797,2.6805,2.6796,2.6796,2.6796,2.6796,2.6796,2.7022,2.7027,2.6984,2.6961,2.691,2.6876,2.6847,2.6798,2.6773,2.6754,2.674,2.6767,2.6758,2.676,2.6765,2.6747,2.6747,2.6747,2.6747,2.7013,2.7008,2.6959,2.6924,2.6886,2.6856,2.6805,2.6769,2.6731,2.6713,2.6713,2.6719,2.6722,2.6711,2.6714,2.6719,2.6688,2.6688,2.6688,2.6991,2.6981,2.6944,2.6912,2.6871,2.6834,2.6785,2.6741,2.6699,2.6685,2.6699,2.6701,2.6711,2.6716,2.6701,2.6705,2.6714,0,0]}]]